Location: Moscow
(38.3171°N, 79.0889°W)
Time: 01:59:32
(UTC+00:00)

Cosmos 1975 Rocket - Pass Details

Date: 07 November 2025
Orbit: 598 x 626 km, 82.5° (Epoch: 08 December)

Event Time Altitude Azimuth Distance (km) Brightness Sun altitude
Rises 23:04:18 0° 9° (N) 2,855 6.2 -11.0°
Reaches altitude 10° 23:07:02 10° 27° (NNE) 1,951 5.3 -11.5°
Maximum altitude 23:10:12 20° 74° (ENE) 1,425 4.3 -12.1°
Enters shadow 23:12:46 12° 115° (ESE) 1,793 5.0 -12.6°
Exits shadow 23:16:01 - 139° (SE) 2,832 6.2 -13.2°
Sets 23:16:04 0° 139° (SE) 2,855 6.2 -13.3°
